GW1258 Weather Reports


time (UTC)temp
C
wind
direction
speed
KPH
gust
KPH
rain 1hr
cm
rain 24hr
cm
rain mn
cm
humidity
%
barometer
mb
20260506015744 15 268 3.2 12.9 0.00 0.13 0.13 54 1019.1
20260506015241 16 285 4.8 14.5 0.00 0.13 0.13 50 1019.0
20260506014738 17 223 3.2 8.0 0.00 0.13 0.13 46 1018.7
20260506014235 17 269 0.0 4.8 0.00 0.13 0.13 44 1019.0
20260506013732 17 254 1.6 3.2 0.00 0.13 0.13 44 1019.0
20260506013229 16 189 3.2 4.8 0.00 0.13 0.13 48 1018.7
20260506012725 17 333 0.0 3.2 0.00 0.13 0.13 42 1019.0
20260506012222 17 294 0.0 4.8 0.00 0.13 0.13 44 1018.9
20260506011720 16 309 0.0 4.8 0.00 0.13 0.13 48 1018.7
20260506011215 15 266 4.8 6.4 0.00 0.13 0.13 50 1018.9
20260506010714 15 289 0.0 3.2 0.00 0.13 0.13 48 1019.0
20260506010211 15 345 0.0 4.8 0.00 0.13 0.13 47 1018.9
20260506005708 16 86 1.6 8.0 0.00 0.13 0.13 46 1019.1
20260506005205 16 249 0.0 4.8 0.00 0.13 0.13 46 1019.0
20260506004655 16 174 0.0 4.8 0.00 0.13 0.13 46 1019.1
20260506004153 17 65 0.0 6.4 0.00 0.13 0.13 46 1019.0
20260506003649 16 229 3.2 8.0 0.00 0.13 0.13 43 1018.9
20260506003146 15 63 6.4 11.3 0.00 0.13 0.13 47 1019.0
20260506002641 15 94 3.2 16.1 0.00 0.13 0.13 49 1018.9
20260506002138 15 108 0.0 9.7 0.00 0.13 0.13 52 1018.9
20260506001633 15 81 3.2 8.0 0.00 0.13 0.13 51 1019.0
20260506001131 14 80 3.2 6.4 0.00 0.13 0.13 53 1018.9
20260506000628 15 65 4.8 8.0 0.00 0.13 0.13 56 1019.0
20260506000125 16 39 1.6 11.3 0.00 0.13 0.13 45 1018.6
20260505235623 16 241 1.6 12.9 0.00 0.13 0.13 47 1019.1
20260505235120 16 242 0.0 4.8 0.00 0.13 0.13 48 1019.1
20260505234617 17 158 1.6 12.9 0.00 0.13 0.13 53 1019.1
20260505234114 16 229 0.0 11.3 0.00 0.13 0.13 46 1019.0
20260505233612 18 302 1.6 9.7 0.00 0.13 0.13 43 1019.1
20260505233109 18 281 6.4 8.0 0.00 0.13 0.13 47 1019.0
20260505232606 17 121 0.0 6.4 0.00 0.13 0.13 50 1019.0
20260505232104 17 74 3.2 4.8 0.00 0.13 0.13 47 1019.2
20260505231600 17 273 1.6 6.4 0.00 0.13 0.13 48 1019.1
20260505231059 15 106 1.6 8.0 0.00 0.13 0.13 56 1019.1
20260505230556 14 53 0.0 4.8 0.00 0.13 0.13 55 1019.1
20260505230052 15 140 1.6 9.7 0.00 0.13 0.13 60 1019.1
20260505225549 15 87 4.8 16.1 0.00 0.13 0.13 53 1019.1
20260505225045 15 267 3.2 6.4 0.00 0.13 0.13 55 1019.1
20260505224543 14 240 0.0 4.8 0.00 0.13 0.13 62 1019.1
20260505224040 14 203 0.0 3.2 0.00 0.13 0.13 59 1019.5
20260505223537 13 25 0.0 6.4 0.00 0.13 0.13 62 1019.2
20260505223033 14 309 4.8 9.7 0.00 0.13 0.13 59 1019.3
20260505222529 14 77 1.6 9.7 0.00 0.13 0.13 62 1019.3
20260505222025 14 77 1.6 9.7 0.00 0.13 0.13 62 1019.3
20260505221523 15 46 1.6 4.8 0.00 0.13 0.13 57 1019.5
20260505221019 16 56 4.8 6.4 0.00 0.13 0.13 57 1019.5
20260505220517 15 76 0.0 12.9 0.00 0.13 0.13 59 1019.7
20260505220015 15 108 3.2 9.7 0.00 0.13 0.13 58 1019.5
20260505215512 15 57 0.0 6.4 0.00 0.13 0.13 61 1019.7
20260505215010 15 158 1.6 4.8 0.00 0.13 0.13 58 1019.7
20260505214508 13 259 3.2 11.3 0.00 0.13 0.13 64 1019.7
20260505214004 13 239 0.0 8.0 0.00 0.13 0.13 62 1020.0
20260505213502 12 314 3.2 9.7 0.00 0.13 0.13 66 1019.8
20260505212958 13 163 3.2 8.0 0.00 0.13 0.13 66 1020.3
20260505212455 12 277 0.0 4.8 0.00 0.13 0.13 72 1019.8
20260505211952 11 105 4.8 8.0 0.00 0.13 0.13 71 1020.1
20260505211449 12 134 1.6 4.8 0.00 0.13 0.13 70 1019.7
20260505210945 11 254 6.4 6.4 0.00 0.13 0.13 71 1020.0
20260505210442 12 166 0.0 3.2 0.00 0.13 0.13 69 1020.1
20260505205939 12 47 0.0 4.8 0.00 0.13 0.13 72 1020.1
20260505205438 12 192 1.6 8.0 0.00 0.13 0.13 71 1020.1
20260505204934 12 343 1.6 4.8 0.00 0.13 0.13 74 1020.1
20260505204432 12 134 4.8 6.4 0.00 0.13 0.13 71 1020.1
20260505203929 11 116 0.0 4.8 0.00 0.13 0.13 74 1020.2
20260505203425 11 313 3.2 6.4 0.00 0.13 0.13 71 1019.8
20260505202922 11 187 0.0 6.4 0.00 0.13 0.13 75 1019.8
20260505202418 11 97 4.8 8.0 0.00 0.13 0.13 74 1019.7
20260505201915 11 124 4.8 6.4 0.00 0.13 0.13 74 1020.2
20260505201412 11 357 3.2 11.3 0.00 0.13 0.13 77 1019.8
20260505200910 12 265 1.6 6.4 0.00 0.13 0.13 75 1019.8
20260505200407 13 324 4.8 9.7 0.00 0.13 0.13 71 1020.0
20260505195902 13 269 3.2 9.7 0.00 0.13 0.13 66 1020.0
20260505195400 14 243 3.2 6.4 0.00 0.13 0.13 64 1020.0
20260505194857 12 110 0.0 4.8 0.00 0.13 0.13 77 1020.2
20260505194355 10 198 3.2 6.4 0.00 0.13 0.13 82 1020.2
20260505193854 11 130 1.6 8.0 0.00 0.13 0.13 80 1020.1
20260505193353 10 224 0.0 4.8 0.00 0.13 0.13 82 1020.2
20260505192850 10 258 3.2 4.8 0.00 0.13 0.13 81 1019.8
20260505192348 10 107 0.0 11.3 0.00 0.13 0.13 82 1019.8
20260505191845 10 149 0.0 6.4 0.00 0.13 0.13 81 1020.0
20260505191344 10 288 3.2 6.4 0.00 0.13 0.13 82 1020.0
20260505190840 10 288 3.2 9.7 0.00 0.13 0.13 83 1020.0
20260505190336 10 303 0.0 8.0 0.00 0.13 0.13 83 1019.5
20260505185831 10 295 1.6 6.4 0.00 0.13 0.13 83 1019.7
20260505185328 10 263 0.0 9.7 0.00 0.13 0.13 84 1019.7
20260505184824 10 265 0.0 8.0 0.00 0.13 0.13 86 1019.6
20260505184322 10 282 3.2 6.4 0.00 0.13 0.13 85 1019.7
20260505183819 10 99 3.2 9.7 0.00 0.13 0.13 83 1019.7
20260505183315 10 262 1.6 4.8 0.00 0.13 0.13 84 1019.6
20260505182812 8 81 1.6 4.8 0.00 0.13 0.13 88 1019.7
20260505182309 8 171 0.0 3.2 0.00 0.13 0.13 88 1019.8
20260505181806 8 76 1.6 4.8 0.00 0.13 0.13 92 1019.7
20260505181303 8 95 3.2 4.8 0.00 0.13 0.13 91 1019.7
20260505180759 8 101 1.6 3.2 0.00 0.13 0.13 92 1019.8
20260505180256 7 131 1.6 4.8 0.00 0.13 0.13 90 1019.6
20260505175752 7 227 3.2 6.4 0.00 0.13 0.13 90 1019.7
20260505175249 7 15 0.0 4.8 0.00 0.13 0.13 90 1019.6
20260505174745 7 256 4.8 6.4 0.00 0.13 0.13 91 1019.2
20260505174243 7 317 4.8 9.7 0.00 0.13 0.13 90 1019.1
20260505173738 8 114 1.6 6.4 0.00 0.13 0.13 91 1019.3
20260505173235 7 342 3.2 6.4 0.00 0.13 0.13 91 1019.3
20260505172732 7 322 0.0 4.8 0.00 0.13 0.13 91 1019.1
20260505172229 7 289 3.2 8.0 0.00 0.13 0.13 91 1019.2
20260505171729 7 315 0.0 6.4 0.00 0.13 0.13 91 1019.1
20260505171227 7 357 3.2 6.4 0.00 0.13 0.13 93 1018.9
20260505170723 7 312 4.8 14.5 0.00 0.13 0.13 92 1018.9
20260505170220 7 232 0.0 6.4 0.00 0.13 0.13 95 1018.9
20260505165715 6 341 4.8 6.4 0.00 0.13 0.13 95 1018.9
20260505165212 6 333 3.2 4.8 0.00 0.13 0.13 95 1018.7
20260505164707 6 42 1.6 6.4 0.00 0.13 0.13 96 1018.9
20260505164204 6 46 1.6 8.0 0.00 0.13 0.13 96 1018.9
20260505163703 6 172 1.6 4.8 0.00 0.13 0.13 96 1018.6
20260505163201 5 319 1.6 4.8 0.00 0.13 0.13 96 1018.5
20260505162658 5 264 0.0 4.8 0.00 0.13 0.13 97 1018.7
20260505162155 5 115 3.2 4.8 0.00 0.13 0.13 97 1018.6
20260505161652 5 269 0.0 4.8 0.00 0.13 0.13 97 1018.4
20260505161149 5 141 1.6 6.4 0.00 0.13 0.13 98 1018.6
20260505160647 5 289 0.0 4.8 0.00 0.13 0.13 98 1018.4
20260505160144 5 122 0.0 4.8 0.00 0.13 0.13 98 1018.4
20260505153124 5 314 0.0 4.8 0.00 0.13 0.13 98 1018.1
20260505152620 5 288 0.0 3.2 0.00 0.13 0.13 98 1018.0
20260505152116 5 89 0.0 1.6 0.00 0.13 0.13 98 1018.1
20260505151611 5 158 0.0 3.2 0.00 0.13 0.13 99 1018.0
20260505151109 5 315 3.2 4.8 0.00 0.13 0.13 99 1017.9
20260505150605 5 343 0.0 3.2 0.00 0.13 0.13 99 1017.8
20260505140530 4 88 0.0 3.2 0.00 0.13 0.13 99 1017.2
20260505124944 3 154 0.0 8.0 0.00 0.13 0.13 99 1016.3
20260505124441 3 205 1.6 4.8 0.00 0.13 0.13 99 1016.4
20260505123937 3 168 1.6 8.0 0.00 0.13 0.13 99 1016.2
20260505123433 3 329 3.2 9.7 0.00 0.13 0.13 99 1016.1
20260505122929 3 29 1.6 6.4 0.00 0.13 0.13 99 1016.1
20260505122427 3 213 1.6 8.0 0.00 0.13 0.13 99 1016.2
20260505121923 3 95 6.4 8.0 0.00 0.13 0.13 99 1016.2
20260505121421 3 320 3.2 8.0 0.00 0.13 0.13 99 1016.3
20260505120916 3 291 0.0 4.8 0.00 0.13 0.13 99 1016.4
20260505120413 3 0 1.6 3.2 0.00 0.13 0.13 99 1016.4
20260505115912 3 67 0.0 4.8 0.00 0.13 0.13 99 1016.3
20260505115409 3 269 0.0 3.2 0.00 0.13 0.13 99 1016.2
20260505114907 3 320 0.0 3.2 0.00 0.13 0.13 99 1016.3
20260505114403 3 150 0.0 4.8 0.00 0.13 0.13 99 1016.2
20260505113859 3 7 1.6 4.8 0.00 0.13 0.13 99 1016.2
20260505113356 3 352 1.6 4.8 0.00 0.13 0.13 99 1016.4
20260505112852 3 302 1.6 4.8 0.00 0.13 0.13 99 1016.3
20260505112350 3 266 0.0 3.2 0.00 0.13 0.13 99 1016.1
20260505111845 3 48 1.6 4.8 0.00 0.13 0.13 99 1016.3
20260505111340 3 204 0.0 3.2 0.00 0.13 0.13 99 1016.3
20260505110837 3 174 0.0 3.2 0.00 0.13 0.13 99 1016.2
20260505110334 3 250 3.2 8.0 0.00 0.13 0.13 99 1016.1
20260505101809 3 124 0.0 3.2 0.00 0.13 0.13 99 1016.4
20260505101304 3 151 0.0 4.8 0.00 0.13 0.13 99 1016.6
20260505100801 3 109 0.0 6.4 0.00 0.13 0.13 99 1016.3
20260505100257 3 131 0.0 4.8 0.00 0.13 0.13 99 1016.3
20260505095753 3 233 3.2 4.8 0.00 0.13 0.13 99 1016.4
20260505095251 3 269 0.0 3.2 0.00 0.13 0.13 99 1016.6
20260505094746 3 169 4.8 4.8 0.00 0.13 0.13 99 1016.7
20260505094243 3 237 0.0 4.8 0.00 0.13 0.13 99 1016.4
20260505093739 3 178 1.6 4.8 0.00 0.13 0.13 99 1016.7
20260505093237 3 139 1.6 4.8 0.00 0.13 0.13 99 1016.8
20260505092734 3 129 1.6 3.2 0.00 0.13 0.13 99 1016.7
20260505092232 3 79 1.6 4.8 0.00 0.13 0.13 99 1016.8
20260505091729 3 197 1.6 4.8 0.00 0.13 0.13 99 1016.7
20260505091228 3 89 0.0 1.6 0.00 0.13 0.13 99 1016.8
20260505090725 3 241 3.2 4.8 0.00 0.13 0.13 99 1016.8
20260505090223 3 114 0.0 4.8 0.00 0.13 0.13 99 1016.8
20260505085720 3 257 4.8 9.7 0.00 0.13 0.13 99 1016.3
20260505085218 3 135 0.0 3.2 0.00 0.13 0.13 99 1016.8
20260505084715 3 119 0.0 1.6 0.00 0.13 0.13 99 1016.8
20260505084214 3 254 0.0 3.2 0.00 0.13 0.13 99 1016.8
20260505083710 3 224 0.0 3.2 0.00 0.13 0.13 99 1016.9
20260505083207 3 113 0.0 3.2 0.00 0.13 0.13 99 1017.0
20260505082703 3 174 0.0 4.8 0.00 0.13 0.13 99 1017.2
20260505082201 3 192 1.6 3.2 0.00 0.13 0.13 99 1016.8
20260505081656 3 13 3.2 4.8 0.00 0.13 0.13 99 1017.2
20260505081154 3 44 0.0 3.2 0.00 0.13 0.13 99 1017.3
20260505080651 3 221 1.6 9.7 0.05 0.13 0.13 99 1017.0
20260505080146 3 57 0.0 6.4 0.05 0.10 0.10 99 1017.0
20260505075642 3 239 4.8 8.0 0.05 0.10 0.10 99 1016.9
20260505075139 3 241 3.2 8.0 0.00 0.10 0.10 99 1017.0
20260505074636 3 255 3.2 9.7 0.00 0.10 0.10 99 1016.9
20260505074133 3 235 3.2 12.9 0.00 0.10 0.10 99 1016.8
20260505073631 3 233 4.8 6.4 0.13 0.10 0.10 99 1016.8
20260505073129 3 203 0.0 6.4 0.23 0.10 0.10 99 1016.9
20260505072624 3 230 3.2 4.8 0.18 0.08 0.08 99 1016.9
20260505072121 3 100 0.0 3.2 0.23 0.05 0.05 99 1017.0
20260505071617 3 150 3.2 6.4 0.30 0.05 0.05 99 1017.5
20260505071115 3 115 4.8 9.7 0.13 0.03 0.03 99 1017.5
20260505070612 3 70 6.4 8.0 0.00 0.00 0.00 99 1017.4
20260505070108 3 226 1.6 4.8 0.05 0.00 0.00 99 1017.0
20260505065604 3 61 4.8 6.4 0.13 1.19 1.19 99 1017.3
20260505065101 3 266 0.0 4.8 0.23 1.19 1.19 99 1017.0
20260505064558 3 67 4.8 17.7 0.30 1.17 1.17 99 1017.2
20260505064056 3 323 6.4 11.3 0.23 1.14 1.14 99 1016.7
20260505063553 3 192 3.2 4.8 0.13 1.12 1.12 99 1016.8
20260505063049 3 60 0.0 8.0 0.05 1.09 1.09 99 1016.7
20260505062545 3 126 3.2 4.8 0.05 1.09 1.09 99 1016.7
20260505062043 3 132 3.2 4.8 0.00 1.07 1.07 99 1016.8
20260505061540 3 149 0.0 4.8 0.00 1.07 1.07 99 1016.9
20260505061038 3 147 0.0 3.2 0.00 1.07 1.07 99 1016.8
20260505060535 3 181 0.0 3.2 0.00 1.07 1.07 99 1016.7
20260505060032 3 138 3.2 3.2 0.00 1.07 1.07 99 1016.7
20260505055527 3 310 3.2 6.4 0.00 1.07 1.07 99 1016.7
20260505055024 3 251 3.2 8.0 0.00 1.07 1.07 99 1016.8
20260505054521 3 156 0.0 12.9 0.00 1.07 1.07 99 1016.9
20260505054020 3 237 3.2 6.4 0.00 1.07 1.07 99 1016.9
20260505053516 3 252 3.2 6.4 0.00 1.07 1.07 99 1016.8
20260505053013 3 193 1.6 6.4 0.00 1.07 1.07 99 1017.2
20260505052510 3 308 0.0 9.7 0.05 1.07 1.07 99 1017.3
20260505052008 3 68 1.6 6.4 0.05 1.07 1.07 99 1017.2
20260505051504 3 185 0.0 3.2 0.00 1.07 1.07 99 1017.2
20260505051003 3 58 0.0 6.4 0.00 1.07 1.07 99 1017.2
20260505050500 3 89 0.0 8.0 0.00 1.07 1.07 99 1017.2
20260505041428 4 148 0.0 3.2 0.00 1.07 1.07 99 1016.9
20260505040925 4 195 0.0 3.2 0.00 1.07 1.07 99 1017.0
20260505040423 4 325 0.0 4.8 0.00 1.07 1.07 98 1016.9
20260505035919 4 201 3.2 3.2 0.00 1.07 1.07 98 1016.7
20260505035415 4 292 1.6 6.4 0.00 1.07 1.07 98 1016.4
20260505034913 4 173 0.0 4.8 0.00 1.07 1.07 99 1016.3
20260505034409 4 256 0.0 9.7 0.00 1.07 1.07 99 1016.4
20260505033906 4 250 3.2 6.4 0.00 1.07 1.07 99 1016.2
20260505033403 3 220 0.0 3.2 0.00 1.07 1.07 99 1016.1
20260505032901 3 222 3.2 8.0 0.00 1.07 1.07 98 1016.1
20260505032357 3 245 3.2 9.7 0.00 1.07 1.07 98 1016.4
20260505031854 3 264 0.0 4.8 0.00 1.07 1.07 98 1016.6
20260505031351 3 232 3.2 8.0 0.00 1.07 1.07 99 1016.6
20260505030848 3 251 4.8 6.4 0.05 1.07 1.07 98 1016.9
20260505030344 3 253 0.0 8.0 0.00 1.07 1.07 98 1016.9
20260505025839 3 332 3.2 6.4 0.00 1.07 1.07 98 1017.3
20260505025337 4 273 3.2 11.3 0.00 1.07 1.07 98 1016.9
20260505024836 4 157 1.6 11.3 0.05 1.07 1.07 99 1017.0
20260505024333 4 298 4.8 14.5 0.05 1.04 1.04 99 1016.7
20260505023830 4 113 0.0 3.2 0.05 1.04 1.04 99 1016.8
20260505023327 4 253 3.2 4.8 0.00 1.04 1.04 99 1016.7
20260505022824 4 159 3.2 8.0 0.00 1.04 1.04 99 1016.7
20260505022321 4 227 1.6 6.4 0.00 1.04 1.04 99 1016.3
20260505021819 4 163 0.0 6.4 0.00 1.04 1.04 98 1015.8
20260505021315 4 15 0.0 4.8 0.00 1.04 1.04 98 1016.2
20260505020811 4 194 0.0 9.7 0.00 1.04 1.04 98 1016.2
20260505020307 4 128 3.2 6.4 0.00 1.04 1.04 98 1016.2